Location: Calberlah
(52.4230°N, 10.6240°E)
Time: 06:09:19
(UTC+00:00)

Cosmos 1812 Rocket - Pass Details

Date: 19 May 2025
Orbit: 601 x 624 km, 82.5° (Epoch: 22 June)

Event Time Altitude Azimuth Distance (km) Brightness Sun altitude
Exits shadow 20:49:01 12° 174° (S) 1,794 5.4 -11.0°
Maximum altitude 20:52:52 59° 96° (E) 703 3.6 -11.4°
Drops below altitude 10° 20:57:07 10° 17° (NNE) 1,962 6.7 -11.7°
Sets 20:59:22 0° 14° (NNE) 2,873 7.7 -11.9°
